Portada
METAR-TAF:

METAR-TAF

Aeropuertos :

Paso de los Libres, Argentina

Aeropuerto Internacional de Paso de los Libres

latitud: 29-41S, longitud: 057-09W, altitud: 69 m

Observación

El informe se hizo hace 1 hora y 9 minutos, a las 10:00 UTC
Viento 7 kt del sur
Temperatura 15°C
Humedad 88%
Presión 1021 hPa
Visibilidad 10 km o más
Escasas nubes a una altura de 800 ft
Cielo cubierto a una altura de 10000 ft

METAR: SARL 231000Z 18007KT 9999 FEW008 OVC100 15/13 Q1021

Hora: 08:09 (11:09 UTC)


TAF: falta

Observaciones y pronósticos meteorológicos de más de 4000 aeropuertos (mensajes METAR y TAF).

Los puntos amarillos y rojos representan las estaciones disponibles.

Ponga el ratón en el punto deseado para ver el nombre de la estación.

Haga clic para ver las observaciones y los pronósticos meteorológicos.

Para cambiar el mapa : haga clic en los botones verdes con una cruz de color negro para hacer un zoom, en el botón verde con un guión para alejar o en las flechas verdes para mapas adyacentes.


METAR-TAF: